Regional Weather Roundup
Issued by NWS Midland/Odessa, TX

Home | Current Version | Previous Version | Text Only | Print | Product List | Glossary On
Versions: 1 2 3 4 5 6 7 8 9 10 11 12 13 14 15 16 17 18 19 20 21 22 23 24 25 26 27 28 29 30 31 32 33 34 35 36 37 38 39 40 41 42 43 44 45 46 47 48 49 50
000
ASUS44 KMAF 290610
RWRMAF
MIDLAND AREA WEATHER ROUNDUP
NATIONAL WEATHER SERVICE MIDLAND TX
100 AM CDT SUN MAR 29 2015

...IN SOUTHWEST TEXAS AND SOUTHEAST NEW MEXICO...

CITY           SKY/WX    TMP DP  RH WIND       PRES   REMARKS
ALPINE         CLEAR     60  20  21 W10       30.19F
ANDREWS        FAIR      64  39  40 SW13G18   30.03F
ARTESIA        CLEAR     54  25  32 W6G12     30.04S
BIG SPRING     CLEAR     63  40  42 SE9       30.03S
CARLSBAD       CLEAR     64  28  25 SW13      30.01S
DRYDEN           N/A     63  39  41 NE7       30.02S
FORT STOCKTON  CLEAR     64  37  36 S13       30.04S
GUAD PASS      CLEAR     64  14  14 W12       30.19S
HOBBS          CLEAR     57  23  26 SW9       30.05S
MARFA          CLEAR     50  23  34 CALM      30.19S
MIDLAND AIRPK  CLEAR     67  39  35 S9        30.03S
MIDLAND INTL   CLEAR     66  41  40 S13       30.02S
ODESSA         CLEAR     67  36  31 S16       30.02F
PECOS          CLEAR     53  38  57 SW8       30.00S
PRESIDIO       FAIR      66  32  27 N7        30.06S
SEMINOLE       CLEAR     57  30  36 CALM      30.03F
SNYDER         CLEAR     67  38  35 S9        30.02S
WINK           CLEAR     58  38  47 SE8       30.00S
$$
...OTHER STATIONS IN TEXAS...

CITY           SKY/WX    TMP DP  RH WIND       PRES   REMARKS
ABILENE        CLEAR     69  38  32 SW17      29.98R
AMARILLO       CLEAR     59  32  36 SE15      29.99F
AUSTIN         CLEAR     54  49  83 S7        30.07F
BROWNSVILLE    CLEAR     64  61  90 S9        30.16F
CORPUS CHRISTI CLEAR     62  59  90 S12       30.12F
DALLAS FTW     CLEAR     65  45  48 SE8       30.00R
DEL RIO        FAIR      66  44  45 SE8       30.03S
EL PASO        CLEAR     78   4   5 W18       30.08F
HOUSTON INT    CLEAR     64  59  83 S8        30.11S
LUBBOCK        CLEAR     59  40  49 SE12      30.01S
SAN ANGELO     CLEAR     67  41  38 S14G23    30.00R
SAN ANTONIO    CLEAR     66  52  60 S14       30.10S
WACO           CLEAR     63  47  55 S12       30.02S
WICHITA FALLS  NOT AVBL
$$
...OTHER LOCATIONS IN NEW MEXICO...

CITY           SKY/WX    TMP DP  RH WIND       PRES   REMARKS
ALAMAGORDO     CLEAR     59  16  18 S10       30.09R
ALBUQUERQUE    CLEAR     64  13  13 N7        30.15R
CANNON AFB     CLEAR     58  27  30 S10       30.04S
CLOVIS         CLEAR     54  27  35 S7        30.04S
HOLLOMAN AFB   CLEAR     60  15  17 S12       30.07R
ROSWELL        CLEAR     60  25  26 W9        30.03S
RUIDOSO        CLEAR     54  12  19 W8        30.26S
SANTA FE       CLEAR     50  14  23 S5        30.18R
TRUTH OR CONSE CLEAR     67   3   8 NW10      30.13R
TUCUMCARI      CLEAR     59  24  26 S6        29.98S
$$



USA.gov is the U.S. government's official web portal to all federal, state and local government web resources and services.